Atqasuk Edward Burnell Sr Mem, AK

9:56 AM AKDT on May 26, 2018 (GMT -0800)
Atqasuk Edward Burnell Sr Mem

Weather History for PATQ - December, 2013

Change the Weather History Date:

Sunday, December 8, 2013

  Actual Average (PABR) Record (PABR)
Temperature  
Mean Temperature 25 °F -  
Max Temperature 29 °F -4 °F 32 °F (1932)
Min Temperature 21 °F -14 °F -40 °F (1975)
Degree Days  
Heating Degree Days 40    
Moisture  
Dew Point 24 °F    
Average Humidity 97    
Maximum Humidity 100    
Minimum Humidity 86    
Precipitation  
Precipitation 0.00 in - - ()
Sea Level Pressure  
Sea Level Pressure 30.15 in    
Wind  
Wind Speed 22 mph (SW)    
Max Wind Speed 37 mph    
Max Gust Speed 44 mph    
Visibility 5 miles    
Events Snow    
Averages and records for this station are not official NWS values.
T = Trace of Precipitation, MM = Missing Value Source: NWS Daily Summary

Daily Weather History Graph

Daily Weather History Graph

Search for Another Location

Airport or City:

Astronomy

Dec. 31, 1969 Rise Set
Actual Time Sun does not set Sun does not set
Civil Twilight 11:12 AM AKST 3:30 PM AKST
Nautical Twilight 9:24 AM AKST 5:19 PM AKST
Astronomical Twilight 8:03 AM AKST 6:39 PM AKST
Moon 1:43 PM AKST (12/8) No Moon Set
Length of Visible Light 4h 17m
Length of Day
0h 00m
Waxing Crescent, 41% of the Moon is Illuminated
Dec 8
Waxing Crescent
Dec 9
First Quarter
Dec 17
Full
Dec 25
Last Quarter
Jan 1
New

Hourly Weather History & Observations

Time (AKST) Temp. Windchill Dew Point Humidity Pressure Visibility Wind Dir Wind Speed Gust Speed Precip Events Conditions
12:04 AM 28.4 °F 13.0 °F 28.4 °F 100% 30.00 in 1.5 mi West 28.8 mph - 0.00 in Snow Light Snow
12:11 AM 28.4 °F 13.0 °F 28.4 °F 100% 30.00 in 1.5 mi West 28.8 mph 34.5 mph 0.00 in Snow Light Snow
12:39 AM 28.4 °F 12.7 °F 28.4 °F 100% 30.01 in 1.2 mi West 29.9 mph 38.0 mph 0.00 in Snow Light Snow
12:46 AM 28.4 °F 13.3 °F 28.4 °F 100% 30.02 in 1.8 mi West 27.6 mph - 0.00 in Snow Light Snow
12:56 AM 29.1 °F 14.0 °F 29.1 °F 100% 30.04 in 1.8 mi West 28.8 mph - 0.00 in Snow Light Snow
1:29 AM 28.4 °F 12.3 °F 28.4 °F 100% 30.03 in 1.2 mi West 32.2 mph 39.1 mph 0.00 in Snow Light Snow
1:42 AM 28.4 °F 12.3 °F 28.4 °F 100% 30.03 in 1.2 mi West 32.2 mph 38.0 mph 0.00 in Snow Light Snow
1:56 AM 29.1 °F 13.5 °F 28.0 °F 96% 30.06 in 1.5 mi West 31.1 mph 38.0 mph 0.00 in Snow Light Snow
2:22 AM 28.4 °F 11.6 °F 28.4 °F 100% 30.05 in 1.2 mi West 35.7 mph - 0.00 in Snow Light Snow
2:43 AM 28.4 °F 11.6 °F 28.4 °F 100% 30.06 in 1.8 mi West 35.7 mph 39.1 mph 0.00 in Snow Light Snow
2:56 AM 28.4 °F 11.4 °F 28.4 °F 100% 30.07 in 1.2 mi West 36.8 mph 43.7 mph N/A Snow Light Snow
3:14 AM 28.4 °F 12.0 °F 26.6 °F 93% 30.08 in 1.5 mi West 33.4 mph 41.4 mph 0.00 in Snow Light Snow
3:27 AM 26.6 °F 9.6 °F 26.6 °F 100% 30.08 in 1.2 mi West 33.4 mph 38.0 mph 0.00 in Snow Light Snow
3:40 AM 26.6 °F 9.8 °F 24.8 °F 93% 30.09 in 1.5 mi West 32.2 mph 38.0 mph 0.00 in Snow Light Snow
3:56 AM 25.2 °F 8.1 °F 24.1 °F 96% 30.12 in 2.0 mi WSW 31.1 mph - 0.00 in Snow Light Snow
4:09 AM 24.8 °F 8.1 °F 24.8 °F 100% 30.11 in 4.0 mi WSW 28.8 mph - 0.00 in Snow Light Snow
4:17 AM 24.8 °F 8.4 °F 24.8 °F 100% 30.11 in 6.0 mi WSW 27.6 mph - 0.00 in Snow Light Snow
4:56 AM 26.1 °F 9.8 °F 24.1 °F 92% 30.13 in 3.0 mi West 28.8 mph 33.4 mph 0.00 in Snow Light Snow
5:30 AM 26.6 °F 10.3 °F 24.8 °F 93% 30.12 in 4.0 mi West 29.9 mph 38.0 mph 0.00 in Snow Light Snow
5:56 AM 24.8 °F 8.1 °F 24.8 °F 100% 30.12 in 6.0 mi West 28.8 mph - N/A Snow Light Snow
6:56 AM 25.2 °F 10.1 °F 23.0 °F 91% 30.17 in 10.0 mi West 23.0 mph - 0.00 in   Overcast
7:56 AM 24.1 °F 9.8 °F 23.0 °F 96% 30.19 in 10.0 mi West 19.6 mph - N/A   Overcast
8:56 AM 24.1 °F 11.5 °F 23.0 °F 96% 30.19 in 10.0 mi West 15.0 mph - N/A   Overcast
9:56 AM 24.1 °F 12.0 °F 23.0 °F 96% 30.21 in 10.0 mi WSW 13.8 mph - N/A   Overcast
10:30 AM 24.8 °F 13.4 °F 23.0 °F 93% 30.19 in 10.0 mi WSW 12.7 mph - N/A   Overcast
10:56 AM 23.0 °F 11.7 °F 22.1 °F 96% 30.21 in 10.0 mi SW 11.5 mph - N/A   Overcast
11:18 AM 23.0 °F 12.4 °F 21.2 °F 93% 30.19 in 10.0 mi WSW 10.4 mph - N/A   Overcast
11:56 AM 23.0 °F 13.1 °F 21.2 °F 93% 30.19 in 10.0 mi WSW 9.2 mph - N/A   Overcast
12:09 PM 23.0 °F 13.1 °F 21.2 °F 93% 30.20 in 10.0 mi WSW 9.2 mph - N/A   Overcast
12:56 PM 23.0 °F 14.7 °F 22.1 °F 96% 30.21 in 10.0 mi WSW 6.9 mph - N/A   Overcast
1:09 PM 23.0 °F 17.0 °F 21.2 °F 93% 30.19 in 10.0 mi WSW 4.6 mph - N/A   Overcast
1:56 PM 24.1 °F 17.0 °F 22.1 °F 92% 30.20 in 10.0 mi SSW 5.8 mph - N/A   Overcast
2:12 PM 23.0 °F 11.7 °F 21.2 °F 93% 30.19 in 2.5 mi SSW 11.5 mph - 0.00 in Snow Light Snow
2:17 PM 24.8 °F 14.0 °F 21.2 °F 86% 30.19 in 1.2 mi SSW 11.5 mph - 0.00 in Snow Light Snow
2:26 PM 24.8 °F - 23.0 °F 93% 30.19 in 1.0 mi North - - 0.00 in Snow Light Snow
2:56 PM 24.8 °F 12.4 °F 23.0 °F 93% 30.19 in 1.0 mi SW 15.0 mph - N/A Snow Light Snow
3:07 PM 24.8 °F 11.9 °F 23.0 °F 93% 30.19 in 1.2 mi SW 16.1 mph - 0.00 in Snow Light Snow
3:15 PM 24.8 °F 12.9 °F 24.8 °F 100% 30.19 in 1.5 mi SW 13.8 mph - 0.00 in Snow Light Snow
3:26 PM 24.8 °F 14.0 °F 24.8 °F 100% 30.18 in 2.0 mi SSW 11.5 mph - 0.00 in Snow Light Snow
3:38 PM 24.8 °F 15.3 °F 24.8 °F 100% 30.18 in 1.5 mi SSW 9.2 mph - 0.00 in Snow Light Snow
3:56 PM 24.1 °F 15.2 °F 24.1 °F 100% 30.20 in 4.0 mi SSW 8.1 mph - 0.00 in Snow Light Snow
4:34 PM 24.8 °F 16.1 °F 23.0 °F 93% 30.18 in 2.0 mi South 8.1 mph - 0.00 in Snow Light Snow
4:56 PM 24.1 °F 15.2 °F 24.1 °F 100% 30.19 in 2.0 mi South 8.1 mph - 0.00 in Snow Light Snow
5:07 PM 24.8 °F 16.1 °F 24.8 °F 100% 30.17 in 6.0 mi South 8.1 mph - 0.00 in Snow Light Snow
5:16 PM 24.8 °F 15.3 °F 23.0 °F 93% 30.17 in 7.0 mi South 9.2 mph - 0.00 in Snow Light Snow
5:56 PM 23.0 °F 13.9 °F 23.0 °F 100% 30.17 in 5.0 mi South 8.1 mph - N/A Snow Light Snow
6:05 PM 23.0 °F 14.7 °F 21.2 °F 93% 30.17 in 6.0 mi South 6.9 mph - 0.00 in Snow Light Snow
6:12 PM 21.2 °F 12.6 °F 21.2 °F 100% 30.17 in 4.0 mi South 6.9 mph - 0.00 in Snow Light Snow
6:56 PM 22.1 °F 12.8 °F 21.0 °F 96% 30.19 in 10.0 mi South 8.1 mph - 0.00 in Snow Light Snow
7:56 PM 21.0 °F 10.6 °F 20.1 °F 96% 30.19 in 9.0 mi South 9.2 mph - 0.00 in Snow Light Snow
8:34 PM 21.2 °F 11.7 °F 21.2 °F 100% 30.18 in 9.0 mi SSE 8.1 mph - 0.00 in Snow Light Snow
8:56 PM 21.2 °F 11.7 °F 21.2 °F 100% 30.18 in 9.0 mi SSE 8.1 mph - N/A Snow Light Snow
9:14 PM 21.2 °F 12.6 °F 21.2 °F 100% 30.18 in 10.0 mi SSE 6.9 mph - 0.00 in Snow Light Snow
9:56 PM 22.1 °F 13.7 °F 21.0 °F 96% 30.20 in 10.0 mi SSE 6.9 mph - 0.00 in Snow Light Snow
10:16 PM 21.2 °F 11.7 °F 21.2 °F 100% 30.18 in 10.0 mi SSE 8.1 mph - 0.00 in Snow Light Snow
10:56 PM 23.0 °F 13.9 °F 22.1 °F 96% 30.20 in 10.0 mi SE 8.1 mph - 0.00 in Snow Light Snow
11:36 PM 23.0 °F 13.9 °F 21.2 °F 93% 30.19 in 10.0 mi SE 8.1 mph - 0.00 in Snow Light Snow
11:56 PM 23.0 °F 13.1 °F 23.0 °F 100% 30.19 in 10.0 mi SE 9.2 mph - N/A Snow Light Snow